#timestamp,LO_Frequency,Hit,StdDev 
1502902815.8,286047002.7,P,0.9
1502902835.7,286047002.8,N,0.9
1502902855.5,286047002.3,N,0.8
1502902875.3,286047002.5,Y,0.0
1502902895.2,286046998.1,P,2.0
1502902915.0,286047001.1,N,1.7
1502902915.9,286047001.1,N,1.5
1502902935.8,286047000.5,N,1.3
1502902955.6,286047000.7,N,1.2
1502902975.4,286047000.7,N,1.1
1502902995.3,286046998.7,N,1.2
1502903015.1,286046998.7,N,1.3
1502903035.8,286046998.6,N,1.3
1502903055.7,286046999.4,N,1.3
1502903075.5,286046998.4,N,1.3
1502903095.4,286046999.1,N,1.2
1502903115.2,286046998.9,N,1.2
1502903135.0,286046999.1,N,1.2
1502903135.9,286046999.1,N,1.2
1502903155.8,286046998.4,N,1.2
1502903175.6,286046998.7,N,1.2
1502903195.5,286046998.4,N,1.1
1502903215.3,286046998.7,N,1.1
1502903235.1,286046999.0,N,1.1
1502903255.9,286046999.0,N,1.1
1502903275.7,286046998.8,N,1.1
1502903295.5,286046998.1,N,1.1
1502903315.4,286046998.4,N,1.1
1502903335.2,286046998.4,N,1.1
1502903355.1,286046998.5,N,1.1
1502903356.0,286046998.5,N,1.0
1502903375.8,286046998.5,N,1.0
1502903395.6,286047000.9,N,1.1
1502903415.5,286047001.1,N,1.0
1502903435.3,286047001.2,N,1.0
1502903455.2,286046998.5,N,1.0
1502903475.9,286046999.0,N,0.9
1502903495.7,286046998.5,N,0.9
1502903515.6,286046998.4,N,0.8
1502903535.4,286046998.7,N,0.8
1502903555.2,286046998.3,N,0.8
1502903575.1,286046998.5,N,0.8
1502903576.0,286046998.5,N,0.8
1502903595.8,286046998.2,N,0.8
1502903615.7,286047000.8,N,0.9
1502903635.5,286046998.9,N,0.9
1502903655.3,286046998.8,N,0.9
1502903675.2,286047001.0,N,0.9
1502903695.0,286047000.7,N,1.0
1502903695.9,286047000.7,N,1.0
1502903715.8,286047000.6,N,1.0
1502903735.6,286047000.9,N,1.1
1502903755.4,286046998.2,N,1.1
1502903775.3,286047000.8,N,1.1
1502903795.1,286047000.5,N,1.1
1502903815.8,286047000.0,N,1.1
1502903835.7,286047000.6,N,1.1
1502903855.5,286047000.3,N,1.1
1502903875.4,286046999.7,N,1.1
1502903895.2,286046998.5,N,1.1
1502903915.0,286047001.1,N,1.1
1502903915.9,286047001.1,N,1.1
1502903935.8,286047000.8,N,1.1
1502903955.6,286047000.8,N,1.1
1502903975.5,286046998.2,N,1.1
1502903995.3,286046998.5,N,1.1
1502904015.1,286047001.0,N,1.1
1502904035.9,286047000.6,N,1.1
1502904055.7,286047000.5,N,1.1
1502904075.6,286047000.4,N,1.1
1502904095.4,286047000.7,N,1.0
1502904115.2,286047000.0,N,1.0
1502904135.1,286047000.6,N,1.0
1502904136.0,286047000.6,N,0.9
1502904155.8,286046998.5,N,0.9
1502904175.7,286046998.4,N,1.0
1502904195.5,286046998.7,N,1.0
1502904215.3,286046999.6,N,1.0
1502904235.2,286046999.1,N,1.0
1502904255.0,286046999.3,N,1.0
1502904255.9,286046999.3,N,1.0
1502904275.8,286046999.6,N,1.0
1502904295.6,286046999.6,N,0.9
1502904315.4,286046999.6,N,0.9
1502904335.3,286046999.6,N,0.9
1502904355.1,286046997.0,Y,0.0
1502904375.9,286046997.2,P,1.3
1502904395.7,286046997.0,N,1.3
1502904415.5,286046996.9,N,1.2
1502904435.4,286046997.4,N,1.1
1502904455.2,286046997.7,N,1.0
1502904475.1,286046997.9,N,0.9
1502904476.0,286046997.9,N,0.9
1502904495.8,286046995.5,Y,0.0
1502904515.6,286046996.8,P,0.5
1502904535.5,286046999.5,N,1.1
1502904555.3,286046996.6,P,1.1
1502904575.2,286046997.5,N,1.0
1502904595.9,286046995.0,Y,0.0
1502904615.7,286046998.9,P,0.6
1502904635.6,286046998.7,N,0.6
1502904655.4,286046998.8,N,0.5
1502904675.3,286046998.9,N,0.5
1502904695.1,286046998.8,N,0.5
1502904715.8,286046998.5,Y,0.0
1502904735.7,286046998.1,P,0.3
1502904755.5,286046998.6,P,0.2
1502904775.4,286047001.1,P,1.2
1502904795.2,286047000.9,N,1.3
1502904815.0,286046998.4,N,1.2
1502904815.9,286046998.4,N,1.2
1502904835.8,286046999.0,N,1.1
1502904855.6,286046996.6,Y,0.0
1502904875.5,286046998.2,P,0.5
1502904895.3,286046998.8,N,0.4
1502904915.1,286046998.8,P,0.3
1502904935.9,286046999.2,N,0.4
1502904955.7,286046996.6,Y,0.0
1502904975.6,286047000.8,P,1.0
1502904995.4,286047000.8,N,0.9
1502905015.2,286046998.1,N,1.2
1502905035.1,286047000.9,N,1.2
1502905036.0,286047000.9,N,1.1
1502905055.8,286047000.1,N,1.1
1502905075.6,286047001.2,N,1.1
1502905095.5,286046998.4,N,1.1
1502905115.3,286046998.3,N,1.2
1502905135.2,286046998.5,N,1.2
1502905155.9,286046998.5,N,1.2
1502905175.7,286046998.1,N,1.2
1502905195.6,286046999.3,N,1.2
1502905215.4,286046996.8,N,1.3
1502905235.3,286046997.1,N,1.4
1502905255.1,286046997.3,N,1.4
1502905256.0,286047011.9,Y,0.0
1502905275.8,286046998.7,P,0.2
1502905295.7,286047001.1,P,1.1
1502905315.5,286047000.9,N,1.1
1502905335.3,286047000.9,N,1.0
1502905355.2,286046998.6,N,1.1
1502905375.0,286046999.3,N,1.0
1502905375.9,286046999.3,N,1.0
1502905395.8,286046996.5,Y,0.0
1502905415.6,286046998.9,P,0.4
1502905435.4,286046999.2,N,0.3
1502905455.3,286046999.4,N,0.3
1502905475.1,286046999.1,Y,0.0
1502905495.9,286046998.6,P,0.4
1502905515.7,286046999.3,N,0.3
1502905535.5,286046999.4,N,0.3
1502905555.4,286046999.1,N,0.3
1502905575.2,286046998.4,Y,0.0
1502905595.1,286047000.6,P,0.7
1502905596.0,286047000.6,N,0.7
1502905615.8,286047001.0,N,0.7
1502905635.6,286046998.6,N,0.9
1502905655.5,286046998.9,N,0.9
1502905675.3,286046998.2,N,1.0
1502905695.2,286046998.6,N,1.0
1502905715.9,286047001.0,N,1.1
1502905735.7,286047000.6,N,1.1
1502905755.6,286047001.1,N,1.1
1502905775.4,286046998.2,N,1.1
1502905795.3,286046998.8,N,1.1
1502905815.1,286047000.8,N,1.1
1502905835.8,286047001.2,N,1.1
1502905855.7,286046998.8,N,1.1
1502905875.5,286047000.9,N,1.1
1502905895.4,286047000.0,N,1.1
1502905915.2,286047001.2,N,1.1
1502905935.0,286046998.4,N,1.1
1502905935.9,286046998.4,N,1.2
1502905955.8,286046996.7,N,1.3
1502905975.6,286046999.4,N,1.3
1502905995.5,286046999.2,N,1.2
1502906015.3,286046996.5,N,1.4
1502906035.1,286046999.3,N,1.3
1502906055.9,286046998.4,N,1.3
1502906075.7,286046998.7,N,1.3
1502906095.5,286046999.2,N,1.3
1502906115.4,286046999.1,N,1.3
1502906135.2,286046998.9,N,1.3
1502906155.1,286046999.2,N,1.2
1502906156.0,286046999.2,N,1.2
1502906175.8,286046998.7,N,1.2
1502906195.6,286046998.8,N,1.2
1502906215.5,286046999.0,N,1.2
1502906235.3,286046998.9,N,1.2
1502906255.2,286046999.6,N,1.2
1502906275.9,286046999.0,N,1.1
1502906295.7,286046998.2,N,1.1
1502906315.6,286046998.6,N,1.0
1502906335.4,286047001.2,N,1.1
1502906355.2,286047000.4,N,1.1
1502906375.1,286047000.0,N,1.1
1502906376.0,286047000.0,N,1.0
1502906395.8,286047000.5,N,1.1
